Lexington Weather

Lexington, Massachusetts, USA

45°F
4/22/2024 9:31am 
  • Lexington Conditions: Clear
  • Temperature: 44.8°F / 7.1°CWarmer 2.4°F than last hour.
  • Dew Point: 25.3°FDecreased 2.2°Fsince last hour.
  • Relative Humidity: 46%Decreased 9.0% since last hour.
  • Wind: Calm, 10-min avg: Calm, gust: 6 mph
  • Barometer: 29.97 inRising 0.02  inHg/hr Rising Slowly
  • Visibility: 10 miles
  • Rain Today: 0.00 in
  •   

Regional Weather Roundup
for Boston, MA

        
000
ASUS41 KBOX 152310
RWRBOX

REGIONAL WEATHER ROUNDUP
NATIONAL WEATHER SERVICE BOSTON/NORTON MA
700 PM EDT MON APR 15 2024

NOTE:  "FAIR" INDICATES FEW OR NO CLOUDS BELOW 12,000 FEET WITH NO 
SIGNIFICANT WEATHER AND/OR OBSTRUCTIONS TO VISIBILITY.

MAZALL-160000-
EASTERN MASSACHUSETTS
  
CITY           SKY/WX    TMP DP  RH WIND       PRES   REMARKS
BOSTON         PTCLDY    66  35  31 NW15G32   29.84R                  
BEVERLY        CLEAR     61  40  45 N12       29.84R                  
LAWRENCE       CLEAR     60  40  47 NW13G18   29.87R                  
BEDFORD        CLEAR     62  34  35 NW13G25   29.84R                  
NORWOOD        CLEAR     67  38  34 NW13      29.84R                  
MARSHFIELD     PTCLDY    57  45  62 CALM      29.83R                  
PLYMOUTH       CLOUDY    65  44  46 N5        29.83R                  
TAUNTON        CLOUDY    70  41  34 NW5       29.83R                  
NEW BEDFORD    PTCLDY    64  50  60 W8G20     29.83R                  
$$

MAZALL-160000-
CAPE COD AND THE ISLANDS
  
CITY           SKY/WX    TMP DP  RH WIND       PRES   REMARKS
FALMOUTH       CLEAR     61  46  59 W16G28    29.83R                  
HYANNIS        CLEAR     60  50  69 SW10      29.82R                  
CHATHAM        CLEAR     54  48  80 VRB5      29.84R                  
PROVINCETOWN   CLOUDY    59  51  75 SW5       29.85R                  
NANTUCKET      CLEAR     51  47  86 SW6       29.83S                  
MARTHAS VNYRD  CLEAR     60  52  74 SW9       29.82R                  
$$
 
MAZALL-160000-
CENTRAL AND WESTERN MASSACHUSETTS
  
CITY           SKY/WX    TMP DP  RH WIND       PRES   REMARKS
WORCESTER      CLEAR     60  34  37 NW14G26   29.86R                  
FITCHBURG      CLEAR     62  32  32 NW13G29   29.87R                  
ORANGE         PTCLDY    59  34  39 NW14G25   29.89R                  
SPRINGFIELD    PTCLDY    63  34  34 NW16      29.83R                  
WESTFIELD      CLEAR     63  36  36 NW16G25   29.87R                  
NORTH ADAMS    MOCLDY    58  33  39 W9G18     29.91R                  
PITTSFIELD     CLEAR     54  34  46 NW15G24   29.89R                  
$$
 
RIZALL-160000-
RHODE ISLAND
  
CITY           SKY/WX    TMP DP  RH WIND       PRES   REMARKS
PROVIDENCE     MOCLDY    69  43  38 N14G20    29.83R                  
NEWPORT        CLEAR     60  50  69 VRB6      29.83R                  
BLOCK ISLAND   PTCLDY    58  49  72 SW16      29.84R                  
SMITHFIELD     PTCLDY    64  40  41 N9        29.85R                  
WESTERLY       CLEAR     61  49  64 SW6       29.84R                  
$$
 
CTZALL-160000-
CONNECTICUT
  
CITY           SKY/WX    TMP DP  RH WIND       PRES   REMARKS
BRADLEY INTL   PTCLDY    67  38  34 NW13G21   29.85R                  
HARTFORD       PTCLDY    68  40  35 N9G21     29.83R                  
PLAINVILLE     FAIR      67  39  36 NW6       29.84R                  
BRIDGEPORT     MOCLDY    72  47  40 VRB3      29.81R                  
DANBURY        CLEAR     69  40  34 NE12      29.84R                  
GROTON         PTCLDY    61  50  67 MISG      29.82R                  
NEW HAVEN      CLOUDY    70  50  49 CALM      29.82R                  
CHESTER        PTCLDY    70  41  35 N8        29.84R                  
MERIDEN        CLEAR     68  39  34 N9        29.83R                  
WILLIMANTIC    PTCLDY    67  40  37 NW10      29.84S                  
OXFORD         PTCLDY    64  41  42 N12       29.85R                  
$$

MEZ002-015-021-024-NHZ003-005-008-011-012-014-VTZ005-008-160000-
NORTHERN NEW ENGLAND
  
CITY           SKY/WX    TMP DP  RH WIND       PRES   REMARKS
PORTLAND ME    MOCLDY    56  44  64 MISG      29.85R                  
BANGOR ME      MOCLDY    56  37  49 NW12      29.81R                  
CONCORD NH     MOCLDY    54  41  61 NW10G22   29.89R                  
MANCHESTER NH  PTCLDY    59  40  49 NW21G28   29.86R                  
NASHUA NH      PTCLDY    60  41  49 NW14G20   29.87R                  
PORTSMOUTH NH  PTCLDY    56  40  54 NW13      29.86R                  
JAFFREY NH     CLEAR     58  38  47 VRB5      29.88R                  
KEENE NH       PTCLDY    56  42  59 N9        29.89R                  
BURLINGTON VT  PTCLDY    56  30  37 W3        29.89R                  
MT. WASHINGTON BLWGSNOW  25  25 100 NW41G55     N/A  VSB 1/16WCI   5  
$$

NYZ052-076-160000-
EASTERN NEW YORK
  
CITY           SKY/WX    TMP DP  RH WIND       PRES   REMARKS
ALBANY         MOCLDY    60  29  30 W14G21    29.93R                  
NEW YORK CITY  PTCLDY    71  48  43 SE9G17    29.79S                  
$$
 
ANZALL-160000-
MARINE OBSERVATIONS
  
STATION/POSITION TIME  TEMP    WIND        PRES    VSBY  WAVE
                       AIR SEA DIR/SP/G                  HT/PER
                 (UTC) (F)     (DEG/KT/KT) (MB)    (MI)  (FT/S)
BOSTON BUOY      2250   53     310/  8/ 12 1009.9R         3/10
BUZZARDS BAY     2200   51     220/ 17/ 17 1009.8R
NANTUCKET SOUND  2250   50 47  220/  6/  8 1009.6R         1/ 8
MASS BAY-STELLWA 2104   51 46  200/  6/  8 1008.6R  1 7/8  3/11
ISLE OF SHOALS   2200   58     320/ 21/ 23 1009.3R
S OF BLOCK IS    2256      45                N/A           6/ 8
$$

......................KEY.........................
  SKY/WX - SKY CONDITION/PRESENT WEATHER
  TMP    - TEMPERATURE IN FAHRENHEIT
  DWPT   - DEWPOINT IN FAHRENHEIT
  RH     - RELATIVE HUMIDITY IN PERCENT
  WIND   - DIRECTION AND SPEED IN MPH
  PRES   - MEAN SEA LEVEL PRESSURE IN INCHES OF HG
  WCI    - WIND CHILL INDEX
  VSB    - VISIBILITY IN MILES
  HX     - HEAT INDEX
  TC     - TEMPERATURE IN CELSIUS
  VRB    - VARIABLE WIND DIRECTION
  N/A    - NOT AVAILABLE
  
      

Other recent Regional Weather Roundups

Mon Apr 22, 9:10am EDT

Mon Apr 22, 8:10am EDT

Mon Apr 22, 7:10am EDT

Mon Apr 22, 6:10am EDT

Mon Apr 22, 5:10am EDT

Mon Apr 22, 4:10am EDT

Mon Apr 22, 3:10am EDT

Mon Apr 22, 2:10am EDT

Mon Apr 22, 1:10am EDT

Mon Apr 22, 12:10am EDT

Sun Apr 21, 11:10pm EDT

Sun Apr 21, 10:10pm EDT

Sun Apr 21, 9:10pm EDT

Sun Apr 21, 8:10pm EDT

Sun Apr 21, 7:10pm EDT

Sun Apr 21, 6:10pm EDT

Sun Apr 21, 5:10pm EDT

Sun Apr 21, 4:10pm EDT

Sun Apr 21, 3:10pm EDT

Sun Apr 21, 2:10pm EDT

Sun Apr 21, 1:10pm EDT

Sun Apr 21, 12:10pm EDT

Sun Apr 21, 11:10am EDT

Sun Apr 21, 10:10am EDT

Sun Apr 21, 9:10am EDT

Sun Apr 21, 8:10am EDT

Sun Apr 21, 7:10am EDT

Sun Apr 21, 6:10am EDT

Sun Apr 21, 5:10am EDT

Sun Apr 21, 4:10am EDT

Sun Apr 21, 3:10am EDT

Sun Apr 21, 2:10am EDT

Sun Apr 21, 1:10am EDT

Sun Apr 21, 12:10am EDT

Sat Apr 20, 11:10pm EDT

Sat Apr 20, 10:10pm EDT

Sat Apr 20, 9:10pm EDT

Sat Apr 20, 8:10pm EDT

Sat Apr 20, 7:10pm EDT

Sat Apr 20, 6:10pm EDT

Sat Apr 20, 5:10pm EDT

Sat Apr 20, 4:10pm EDT

Sat Apr 20, 3:10pm EDT

Sat Apr 20, 2:10pm EDT

Sat Apr 20, 1:10pm EDT

Sat Apr 20, 12:10pm EDT

Sat Apr 20, 11:10am EDT

Sat Apr 20, 10:10am EDT

Sat Apr 20, 9:10am EDT

Sat Apr 20, 8:10am EDT

Sat Apr 20, 7:10am EDT

Sat Apr 20, 6:10am EDT

Sat Apr 20, 5:10am EDT

Sat Apr 20, 4:10am EDT

Sat Apr 20, 3:10am EDT

Sat Apr 20, 2:10am EDT

Sat Apr 20, 1:10am EDT

Sat Apr 20, 12:10am EDT

Fri Apr 19, 11:10pm EDT

Fri Apr 19, 10:10pm EDT

Fri Apr 19, 9:10pm EDT

Fri Apr 19, 8:10pm EDT

Fri Apr 19, 7:10pm EDT

Fri Apr 19, 6:10pm EDT

Fri Apr 19, 5:10pm EDT

Fri Apr 19, 4:10pm EDT

Fri Apr 19, 3:10pm EDT

Fri Apr 19, 2:10pm EDT

Fri Apr 19, 1:10pm EDT

Fri Apr 19, 12:10pm EDT

Fri Apr 19, 11:10am EDT

Fri Apr 19, 10:10am EDT

Fri Apr 19, 9:10am EDT

Fri Apr 19, 8:10am EDT

Fri Apr 19, 7:10am EDT

Fri Apr 19, 6:10am EDT

Fri Apr 19, 5:10am EDT

Fri Apr 19, 4:10am EDT

Fri Apr 19, 3:10am EDT

Fri Apr 19, 2:10am EDT

Fri Apr 19, 1:10am EDT

Fri Apr 19, 12:10am EDT

Thu Apr 18, 11:10pm EDT

Thu Apr 18, 10:10pm EDT

Thu Apr 18, 9:10pm EDT

Thu Apr 18, 8:10pm EDT

Thu Apr 18, 7:10pm EDT

Thu Apr 18, 6:10pm EDT

Thu Apr 18, 5:10pm EDT

Thu Apr 18, 4:10pm EDT

Thu Apr 18, 3:10pm EDT

Thu Apr 18, 2:10pm EDT

Thu Apr 18, 1:10pm EDT

Thu Apr 18, 12:10pm EDT

Thu Apr 18, 11:10am EDT

Thu Apr 18, 10:10am EDT

Thu Apr 18, 9:10am EDT

Thu Apr 18, 8:10am EDT

Thu Apr 18, 7:10am EDT

Thu Apr 18, 6:10am EDT

Thu Apr 18, 5:10am EDT

Thu Apr 18, 4:10am EDT

Thu Apr 18, 3:10am EDT

Thu Apr 18, 2:10am EDT

Thu Apr 18, 1:10am EDT

Thu Apr 18, 12:10am EDT

Wed Apr 17, 11:10pm EDT

Wed Apr 17, 10:10pm EDT

Wed Apr 17, 9:10pm EDT

Wed Apr 17, 8:10pm EDT

Wed Apr 17, 7:10pm EDT

Wed Apr 17, 6:10pm EDT

Wed Apr 17, 5:10pm EDT

Wed Apr 17, 4:10pm EDT

Wed Apr 17, 3:10pm EDT

Wed Apr 17, 2:10pm EDT

Wed Apr 17, 1:10pm EDT

Wed Apr 17, 12:10pm EDT

Wed Apr 17, 11:10am EDT

Wed Apr 17, 10:10am EDT

Wed Apr 17, 9:10am EDT

Wed Apr 17, 8:10am EDT

Wed Apr 17, 7:10am EDT

Wed Apr 17, 6:10am EDT

Wed Apr 17, 5:10am EDT

Wed Apr 17, 4:10am EDT

Wed Apr 17, 3:10am EDT

Wed Apr 17, 2:10am EDT

Wed Apr 17, 1:10am EDT

Wed Apr 17, 12:10am EDT

Tue Apr 16, 11:10pm EDT

Tue Apr 16, 10:10pm EDT

Tue Apr 16, 9:10pm EDT

Tue Apr 16, 8:10pm EDT

Tue Apr 16, 7:10pm EDT

Tue Apr 16, 6:10pm EDT

Tue Apr 16, 5:10pm EDT

Tue Apr 16, 4:10pm EDT

Tue Apr 16, 3:10pm EDT

Tue Apr 16, 2:10pm EDT

Tue Apr 16, 1:10pm EDT

Tue Apr 16, 12:10pm EDT

Tue Apr 16, 11:10am EDT

Tue Apr 16, 10:10am EDT

Tue Apr 16, 9:10am EDT

Tue Apr 16, 8:10am EDT

Tue Apr 16, 7:10am EDT

Tue Apr 16, 6:10am EDT

Tue Apr 16, 5:10am EDT

Tue Apr 16, 4:10am EDT

Tue Apr 16, 3:10am EDT

Tue Apr 16, 2:10am EDT

Tue Apr 16, 1:10am EDT

Tue Apr 16, 12:10am EDT

Mon Apr 15, 11:10pm EDT

Mon Apr 15, 10:10pm EDT

Mon Apr 15, 9:10pm EDT

Mon Apr 15, 8:10pm EDT

Mon Apr 15, 6:10pm EDT

Mon Apr 15, 5:10pm EDT

Mon Apr 15, 4:10pm EDT

Mon Apr 15, 3:10pm EDT

Mon Apr 15, 2:10pm EDT

Mon Apr 15, 1:10pm EDT

Mon Apr 15, 12:10pm EDT

Mon Apr 15, 11:10am EDT

Mon Apr 15, 10:10am EDT